BLY2039 EGJJ-EGKK

Flight info

Callsign BLY2039
Flight time 0h 30m
Altitude 23000
Route ORIST L982 VASUX
Aircraft A321/M-SDE3FGHIRWY/LB1

Departure

Time 2026-05-06 18:47
Airport Jersey Airport (EGJJ)

Arrival

Time 2026-05-06 19:17
Airport London Gatwick Airport (EGKK)
Time Latitude Longitude Altitude Speed Heading
2026-05-06 18:29 49.20576 -2.19646 281 ft 0 kts 162°
2026-05-06 18:41 49.20592 -2.19653 281 ft 2 kts 164°
2026-05-06 18:41 49.20608 -2.19660 281 ft 2 kts 165°
2026-05-06 18:42 49.20624 -2.19666 281 ft 2 kts 172°
2026-05-06 18:42 49.20640 -2.19668 281 ft 2 kts 198°
2026-05-06 18:42 49.20651 -2.19661 283 ft 1 kts 213°
2026-05-06 18:42 49.20652 -2.19660 283 ft 0 kts 213°
2026-05-06 18:44 49.20625 -2.19696 284 ft 11 kts 234°
2026-05-06 18:44 49.20609 -2.19813 281 ft 12 kts 266°
2026-05-06 18:44 49.20581 -2.19927 280 ft 11 kts 214°
2026-05-06 18:44 49.20525 -2.19982 280 ft 10 kts 268°
2026-05-06 18:45 49.20535 -2.20086 282 ft 10 kts 284°
2026-05-06 18:45 49.20558 -2.20197 280 ft 12 kts 288°
2026-05-06 18:45 49.20587 -2.20341 280 ft 15 kts 287°
2026-05-06 18:45 49.20607 -2.20445 280 ft 16 kts 285°
2026-05-06 18:46 49.20633 -2.20659 279 ft 13 kts 294°
2026-05-06 18:46 49.20699 -2.20672 280 ft 11 kts 48°
2026-05-06 18:46 49.20715 -2.20549 279 ft 22 kts 83°
2026-05-06 18:46 49.20772 -2.19852 282 ft 106 kts 83°
2026-05-06 18:47 49.20892 -2.18387 357 ft 164 kts 83°
2026-05-06 18:47 49.21019 -2.16622 1141 ft 165 kts 83°
2026-05-06 18:47 49.21160 -2.14895 1769 ft 162 kts 82°
2026-05-06 18:47 49.21308 -2.13155 2172 ft 173 kts 83°
2026-05-06 18:48 49.21472 -2.11228 2378 ft 193 kts 83°
2026-05-06 18:48 49.21652 -2.09107 2479 ft 207 kts 83°
2026-05-06 18:48 49.21890 -2.06849 2694 ft 217 kts 70°
2026-05-06 18:48 49.22777 -2.05040 3365 ft 218 kts 31°
2026-05-06 18:49 49.24226 -2.04446 4009 ft 220 kts
2026-05-06 18:49 49.25764 -2.04367 4727 ft 222 kts
2026-05-06 18:49 49.27337 -2.04299 5220 ft 236 kts
2026-05-06 18:49 49.29056 -2.04228 5495 ft 258 kts
2026-05-06 18:50 49.30890 -2.04147 6057 ft 267 kts
2026-05-06 18:50 49.32765 -2.04057 6735 ft 272 kts
2026-05-06 18:50 49.34665 -2.03962 7429 ft 274 kts
2026-05-06 18:50 49.35932 -2.03899 7900 ft 276 kts
2026-05-06 18:51 49.37862 -2.03800 8619 ft 279 kts 360°
2026-05-06 18:51 49.39809 -2.03697 9338 ft 281 kts 360°
2026-05-06 18:51 49.41774 -2.03594 10038 ft 284 kts 359°
2026-05-06 18:51 49.43756 -2.03492 10670 ft 287 kts 359°
2026-05-06 18:52 49.45764 -2.03386 11293 ft 290 kts 360°
2026-05-06 18:52 49.47791 -2.03278 11919 ft 293 kts
2026-05-06 18:52 49.49843 -2.03169 12547 ft 297 kts
2026-05-06 18:52 49.51915 -2.03060 13187 ft 300 kts
2026-05-06 18:53 49.54038 -2.02950 13824 ft 303 kts
2026-05-06 18:53 49.56155 -2.02838 14383 ft 306 kts
2026-05-06 18:53 49.58287 -2.02722 14943 ft 308 kts
2026-05-06 18:53 49.60442 -2.02605 15501 ft 311 kts
2026-05-06 18:54 49.62616 -2.02496 16052 ft 314 kts
2026-05-06 18:54 49.64811 -2.02388 16601 ft 317 kts
2026-05-06 18:54 49.67024 -2.02270 17153 ft 320 kts
2026-05-06 18:54 49.69262 -2.02151 17698 ft 323 kts
2026-05-06 18:55 49.71513 -2.02032 18240 ft 326 kts
2026-05-06 18:55 49.73787 -2.01912 18713 ft 328 kts
2026-05-06 18:55 49.76077 -2.01792 19184 ft 330 kts
2026-05-06 18:55 49.78372 -2.01390 19646 ft 334 kts 12°
2026-05-06 18:56 49.80595 -2.00179 19875 ft 347 kts 25°
2026-05-06 18:56 49.82780 -1.98411 20011 ft 361 kts 26°
2026-05-06 18:56 49.85046 -1.96571 20141 ft 374 kts 26°
2026-05-06 18:56 49.87394 -1.94672 20269 ft 388 kts 26°
2026-05-06 18:57 49.89821 -1.92712 20499 ft 397 kts 26°
2026-05-06 18:57 49.92287 -1.90727 20924 ft 401 kts 26°
2026-05-06 18:57 49.94778 -1.88721 21403 ft 404 kts 26°
2026-05-06 18:57 49.97283 -1.86700 21864 ft 407 kts 26°
2026-05-06 18:58 49.99806 -1.84663 22307 ft 410 kts 26°
2026-05-06 18:58 50.02348 -1.82622 22744 ft 413 kts 26°
2026-05-06 18:58 50.04919 -1.80583 22969 ft 414 kts 25°
2026-05-06 18:58 50.07460 -1.78583 23003 ft 406 kts 25°
2026-05-06 18:59 50.10007 -1.76579 23006 ft 404 kts 25°
2026-05-06 18:59 50.12468 -1.74433 23007 ft 404 kts 33°
2026-05-06 18:59 50.14675 -1.71751 23004 ft 405 kts 39°
2026-05-06 18:59 50.16836 -1.68934 23005 ft 405 kts 38°
2026-05-06 19:00 50.18998 -1.66123 23009 ft 405 kts 38°
2026-05-06 19:00 50.21166 -1.63315 23011 ft 405 kts 38°
2026-05-06 19:00 50.23334 -1.60503 23008 ft 406 kts 38°
2026-05-06 19:00 50.25506 -1.57683 23007 ft 406 kts 38°
2026-05-06 19:01 50.27673 -1.54867 23003 ft 406 kts 38°
2026-05-06 19:01 50.29847 -1.52053 23002 ft 406 kts 38°
2026-05-06 19:01 50.32022 -1.49237 23001 ft 406 kts 38°
2026-05-06 19:01 50.34195 -1.46420 23005 ft 406 kts 38°
2026-05-06 19:02 50.36368 -1.43599 23001 ft 406 kts 38°
2026-05-06 19:02 50.38541 -1.40777 23004 ft 406 kts 38°
2026-05-06 19:02 50.40736 -1.37923 23001 ft 413 kts 38°
2026-05-06 19:02 50.42949 -1.35037 23008 ft 415 kts 38°
2026-05-06 19:03 50.45173 -1.32130 23002 ft 416 kts 38°
2026-05-06 19:03 50.47396 -1.29221 23002 ft 416 kts 38°
2026-05-06 19:03 50.49624 -1.26304 23000 ft 416 kts 38°
2026-05-06 19:03 50.51847 -1.23394 22997 ft 416 kts 38°
2026-05-06 19:04 50.54100 -1.20437 22998 ft 416 kts 38°
2026-05-06 19:04 50.56319 -1.17519 22997 ft 412 kts 38°
2026-05-06 19:04 50.58453 -1.14711 22837 ft 386 kts 38°
2026-05-06 19:04 50.60509 -1.12006 21443 ft 389 kts 38°
2026-05-06 19:05 50.62611 -1.09238 19856 ft 399 kts 38°
2026-05-06 19:05 50.64756 -1.06410 18254 ft 407 kts 39°
2026-05-06 19:05 50.66775 -1.03235 16381 ft 413 kts 49°
2026-05-06 19:05 50.68605 -0.99729 14777 ft 413 kts 50°
2026-05-06 19:06 50.70399 -0.96266 13838 ft 398 kts 50°
2026-05-06 19:06 50.72079 -0.93009 13390 ft 368 kts 49°
2026-05-06 19:06 50.73624 -0.90005 13195 ft 337 kts 49°
2026-05-06 19:06 50.75055 -0.87222 13038 ft 320 kts 49°
2026-05-06 19:07 50.76448 -0.84514 12993 ft 315 kts 49°
2026-05-06 19:07 50.77832 -0.81829 12999 ft 307 kts 49°
2026-05-06 19:07 50.79171 -0.79234 12754 ft 303 kts 49°
2026-05-06 19:07 50.80422 -0.76578 12385 ft 301 kts 58°
2026-05-06 19:08 50.81277 -0.73563 12006 ft 301 kts 72°
2026-05-06 19:08 50.81719 -0.70331 11633 ft 300 kts 78°
2026-05-06 19:08 50.82092 -0.67096 11283 ft 298 kts 78°
2026-05-06 19:08 50.82467 -0.63886 10940 ft 296 kts 78°
2026-05-06 19:09 50.82878 -0.60707 10591 ft 293 kts 70°
2026-05-06 19:09 50.83873 -0.57970 10257 ft 286 kts 43°
2026-05-06 19:09 50.85494 -0.56271 9899 ft 279 kts 17°
2026-05-06 19:09 50.87390 -0.55761 9487 ft 277 kts
2026-05-06 19:10 50.89310 -0.55600 9092 ft 276 kts
2026-05-06 19:10 50.91196 -0.55469 8794 ft 262 kts
2026-05-06 19:10 50.92971 -0.55346 8347 ft 251 kts
2026-05-06 19:10 50.94727 -0.55225 7754 ft 247 kts
2026-05-06 19:11 50.96436 -0.55116 7150 ft 245 kts
2026-05-06 19:11 50.98132 -0.55010 6576 ft 242 kts
2026-05-06 19:11 50.99808 -0.54906 5973 ft 239 kts
2026-05-06 19:11 51.01462 -0.54806 5350 ft 237 kts
2026-05-06 19:12 51.03106 -0.54678 4710 ft 236 kts
2026-05-06 19:12 51.04601 -0.53709 4072 ft 234 kts 34°
2026-05-06 19:12 51.05851 -0.52060 3454 ft 233 kts 40°
2026-05-06 19:12 51.07030 -0.50357 3076 ft 220 kts 41°
2026-05-06 19:13 51.08106 -0.48785 2995 ft 202 kts 41°
2026-05-06 19:13 51.09118 -0.47294 3003 ft 196 kts 41°
2026-05-06 19:13 51.10091 -0.45867 3029 ft 186 kts 41°
2026-05-06 19:13 51.10998 -0.44445 3020 ft 182 kts 50°
2026-05-06 19:14 51.11534 -0.42614 2959 ft 185 kts 73°
2026-05-06 19:14 51.11813 -0.40626 2762 ft 181 kts 75°
2026-05-06 19:14 51.12072 -0.38740 2536 ft 169 kts 75°
2026-05-06 19:14 51.12321 -0.36952 2316 ft 164 kts 74°
2026-05-06 19:15 51.12567 -0.35193 2101 ft 161 kts 74°
2026-05-06 19:15 51.12809 -0.33465 1878 ft 160 kts 74°
2026-05-06 19:15 51.13054 -0.31711 1657 ft 160 kts 74°
2026-05-06 19:15 51.13295 -0.29984 1459 ft 164 kts 74°
2026-05-06 19:16 51.13561 -0.28084 1201 ft 183 kts 75°
2026-05-06 19:16 51.13837 -0.26087 935 ft 185 kts 75°
2026-05-06 19:16 51.14097 -0.24204 676 ft 160 kts 76°
2026-05-06 19:16 51.14321 -0.22585 472 ft 142 kts 77°
2026-05-06 19:17 51.14533 -0.21022 322 ft 146 kts 77°
2026-05-06 19:17 51.14749 -0.19457 215 ft 139 kts 77°
2026-05-06 19:17 51.14887 -0.18464 207 ft 23 kts 77°
2026-05-06 19:17 51.14932 -0.18154 214 ft 36 kts 76°
2026-05-06 19:18 51.15008 -0.17902 215 ft 20 kts 56°
2026-05-06 19:18 51.15071 -0.17776 208 ft 0 kts 28°
2026-05-06 19:20 51.15084 -0.17766 214 ft 10 kts 20°
2026-05-06 19:20 51.15180 -0.17766 208 ft 0 kts 353°
2026-05-06 19:20 51.15184 -0.17767 208 ft 1 kts 353°
2026-05-06 19:20 51.15196 -0.17769 213 ft 2 kts 353°
2026-05-06 19:21 51.15206 -0.17771 213 ft 0 kts 353°
2026-05-06 19:21 51.15242 -0.17823 210 ft 14 kts 290°
2026-05-06 19:21 51.15229 -0.17982 215 ft 14 kts 257°
2026-05-06 19:22 51.15270 -0.18100 208 ft 14 kts 339°
2026-05-06 19:22 51.15366 -0.18140 214 ft 15 kts 349°
2026-05-06 19:22 51.15458 -0.18122 210 ft 11 kts 24°
2026-05-06 19:22 51.15526 -0.18160 213 ft 13 kts 310°
2026-05-06 19:23 51.15615 -0.18221 205 ft 15 kts
2026-05-06 19:23 51.15680 -0.18110 213 ft 15 kts 73°
2026-05-06 19:23 51.15728 -0.18039 211 ft 1 kts 352°
2026-05-06 19:23 51.15785 -0.18041 209 ft 15 kts 19°